Regional Weather Roundup
Issued by NWS

Home | Current Version | Previous Version | Graphics & Text | Print | Product List | Glossary On
Versions: 1 2 3 4 5 6 7 8 9 10 11 12 13 14 15 16 17 18 19 20 21 22 23 24 25 26 27 28 29 30 31 32 33 34 35 36 37 38 39 40 41 42 43 44 45 46 47 48 49 50
000
ASUS44 KMEG 220610
RWRTN
TENNESSEE HOURLY STATE WEATHER ROUNDUP
NATIONAL WEATHER SERVICE MEMPHIS TN
100 AM CDT SUN OCT 22 2017

TNZ002-004-019-021-049-052-054-088>092-220700-
WEST TENNESSEE

CITY           SKY/WX    TMP DP  RH WIND       PRES   REMARKS
MEMPHIS INTL   CLOUDY    72  64  76 S15G21    30.03S
NWS MEMPHIS      N/A     71 N/A N/A MISG        N/A
JACKSON        PTCLDY    70  62  76 S9G23     30.08S
DYERSBURG        N/A     70  62  76 SE10G18   30.04F
SOMERVILLE     PTCLDY    70  63  78 S8G16     30.05S
COVINGTON      MOCLDY    72  63  73 S10G17    30.04S
UNION CITY     CLEAR     68  61  77 S12       30.05F
BOLIVAR        PTCLDY    70  63  78 SE8       30.08S
HUNTINGDON     PTCLDY    66  61  82 SE6       30.09R
SELMER         PTCLDY    68  61  77 S10       30.11R
SAVANNAH       MOCLDY    68  61  77 S8G16     30.11R
$$

TNZ008-025-027-028-033-062-065-066-220700-
NORTH MIDDLE TENNESSEE

CITY           SKY/WX    TMP DP  RH WIND       PRES   REMARKS
NASHVILLE      PTCLDY    66  53  63 S13       30.16F
PORTLAND         N/A     64  52  63 S13       30.14F
CLARKSVILLE    CLOUDY    63  55  75 SE9       30.12F
SMYRNA         PTCLDY    64  53  67 SE8       30.17F
COOKEVILLE     MOCLDY    59  50  72 S6        30.21F
GALLATIN       CLOUDY    63  52  67 E3        30.19F
CROSSVILLE     CLOUDY    56  46  69 S3        30.26F
$$

TNZ061-075-076-078-094-096-097-220700-
SOUTH MIDDLE TENNESSEE

CITY           SKY/WX    TMP DP  RH WIND       PRES   REMARKS
FAYETTEVILLE   PTCLDY    63  55  77 SE8       30.18F
TULLAHOMA      CLEAR     63  50  63 SE9       30.21F
WINCHESTER     CLEAR     63  52  67 S9          N/A
COLUMBIA       CLEAR     68  57  68 S7        30.12S
SHELBYVILLE    CLEAR     64  55  72 SE10      30.17F
$$

TNZ017-018-042-046-047-220700-
NORTHEAST TENNESSEE

CITY           SKY/WX    TMP DP  RH WIND       PRES   REMARKS
TRI CITIES     PTCLDY    50  48  93 CALM      30.30F
ELIZABETHTON   CLEAR     59  48  67 E5        30.30F
$$

TNZ012-013-036-069-073-074-220700-
CENTRAL EAST TENNESSEE

CITY           SKY/WX    TMP DP  RH WIND       PRES   REMARKS
KNOXVILLE      MOCLDY    54  53  97 CALM      30.25S
OAK RIDGE      PTCLDY    54  54 100 CALM      30.27S
DOWNTOWN KNOXV FOG       54  54 100 CALM      30.27R VSB 0
GATLINBURG     CLEAR     50  50 100 CALM      30.26R
MORRISTOWN     CLEAR     59  46  63 CALM      30.26S
JACKSBORO      CLEAR     50  50 100 CALM      30.29S
$$

TNZ083-085-099-220700-
SOUTHEAST TENNESSEE

CITY           SKY/WX    TMP DP  RH WIND       PRES   REMARKS
CHATTANOOGA    CLEAR     55  51  86 CALM      30.26S
DAYTON         CLEAR     50  50 100 CALM      30.25S
$$

SKY/WX REPORTED AS FAIR MEANS FEW OR NO CLOUDS BELOW
12 THOUSAND FEET.





USA.gov is the U.S. government's official web portal to all federal, state and local government web resources and services.